Location: Casilda
(33.0440°S, 61.1680°W)
Time: 08:43:06
(UTC-03:00)

ISS - Pass Details

Date: 23 September 2021
Orbit: 417 x 422 km, 51.6° (Epoch: 28 September)

Event Time Altitude Azimuth Distance (km) Brightness Sun altitude
Exits shadow 05:01:08 39° 70° (ENE) 658 -2.5 -23.8°
Drops below altitude 10° 05:03:59 10° 120° (ESE) 1,532 0.1 -23.3°
Sets 05:06:10 0° 127° (SE) 2,404 1.3 -22.8°
